VIR355 VABB-EGLL

Flight info

Callsign VIR355
Flight time N/A
Altitude 34000
Route RAXET2A BISET P751 LEGEN N563 REXOD L883 UMILA N569 TOKRA DCT MEDPO/N0503F360 DCT BOSOB DCT ITRUX Y511 PMA Z712 WEJ L677 CVO L617 MENKU/N0501F380 L617 TANSA UL613 YNN UL611 TUMBO DCT RODON DCT VAKSU DCT ROTAR DCT SAFFA DCT ELMUR DCT RIPUS DCT DITON DCT HOC DCT LUL DCT RLP DCT ROTSI DCT KOTUN DCT NINAL DCT ABNUR DCT DIMAL DCT ALESO
Aircraft A35K/H-SDE2E3GHIJ3J4J5LM1ORWXY/LB1D1

Departure

Time N/A
Airport Chhatrapati Shivaji Maharaj International Airport (VABB)

Arrival

Time 2026-04-27 07:53
Airport London Heathrow Airport (EGLL)
Time Latitude Longitude Altitude Speed Heading
2026-04-27 07:41 51.33939 -0.13710 6989 ft 244 kts 276°
2026-04-27 07:41 51.34057 -0.16043 6984 ft 244 kts 276°
2026-04-27 07:42 51.34193 -0.18721 6987 ft 244 kts 274°
2026-04-27 07:42 51.34327 -0.21428 6985 ft 244 kts 276°
2026-04-27 07:42 51.34465 -0.24126 6992 ft 244 kts 275°
2026-04-27 07:42 51.34604 -0.26832 6992 ft 244 kts 275°
2026-04-27 07:43 51.34742 -0.29544 6994 ft 244 kts 275°
2026-04-27 07:43 51.34878 -0.32254 6998 ft 244 kts 275°
2026-04-27 07:43 51.35006 -0.34891 6989 ft 244 kts 276°
2026-04-27 07:43 51.35136 -0.37567 6990 ft 244 kts 275°
2026-04-27 07:44 51.35269 -0.40269 6999 ft 244 kts 274°
2026-04-27 07:44 51.35400 -0.42970 6990 ft 244 kts 276°
2026-04-27 07:44 51.35533 -0.45675 6987 ft 244 kts 276°
2026-04-27 07:44 51.35665 -0.48385 6990 ft 244 kts 275°
2026-04-27 07:45 51.35795 -0.51096 6993 ft 244 kts 274°
2026-04-27 07:45 51.35919 -0.53763 6991 ft 244 kts 275°
2026-04-27 07:45 51.36045 -0.56513 6988 ft 244 kts 275°
2026-04-27 07:45 51.36168 -0.59133 6990 ft 234 kts 274°
2026-04-27 07:46 51.36289 -0.61705 7020 ft 231 kts 274°
2026-04-27 07:46 51.36411 -0.64275 7006 ft 231 kts 275°
2026-04-27 07:46 51.36553 -0.66846 6970 ft 233 kts 278°
2026-04-27 07:46 51.36932 -0.69334 6783 ft 228 kts 289°
2026-04-27 07:47 51.37583 -0.71621 6497 ft 223 kts 301°
2026-04-27 07:47 51.38436 -0.73643 6050 ft 217 kts 309°
2026-04-27 07:47 51.39471 -0.75402 5442 ft 218 kts 319°
2026-04-27 07:47 51.40671 -0.76867 4856 ft 219 kts 328°
2026-04-27 07:48 51.42010 -0.78018 4302 ft 216 kts 341°
2026-04-27 07:48 51.43453 -0.78277 3818 ft 211 kts
2026-04-27 07:48 51.44792 -0.77538 3597 ft 196 kts 27°
2026-04-27 07:48 51.45972 -0.76587 3479 ft 180 kts 26°
2026-04-27 07:49 51.46989 -0.75481 3375 ft 183 kts 45°
2026-04-27 07:49 51.47563 -0.73663 3269 ft 183 kts 71°
2026-04-27 07:49 51.47705 -0.71692 3032 ft 174 kts 88°
2026-04-27 07:49 51.47671 -0.69804 2783 ft 167 kts 89°
2026-04-27 07:50 51.47679 -0.67952 2520 ft 163 kts 87°
2026-04-27 07:50 51.47690 -0.66173 2309 ft 155 kts 86°
2026-04-27 07:50 51.47698 -0.65023 2172 ft 155 kts 87°
2026-04-27 07:50 51.47705 -0.63303 1938 ft 151 kts 85°
2026-04-27 07:51 51.47712 -0.61684 1734 ft 140 kts 86°
2026-04-27 07:51 51.47716 -0.60148 1562 ft 136 kts 87°
2026-04-27 07:51 51.47721 -0.58623 1376 ft 137 kts 86°
2026-04-27 07:51 51.47742 -0.57087 1205 ft 147 kts 83°
2026-04-27 07:52 51.47786 -0.55299 1017 ft 163 kts 86°
2026-04-27 07:52 51.47735 -0.53516 748 ft 156 kts 89°
2026-04-27 07:52 51.47730 -0.51854 514 ft 142 kts 88°
2026-04-27 07:52 51.47738 -0.50330 323 ft 135 kts 89°
2026-04-27 07:53 51.47744 -0.48830 172 ft 133 kts 89°
2026-04-27 07:53 51.47751 -0.47356 95 ft 126 kts 88°
2026-04-27 07:53 51.47759 -0.46176 96 ft 84 kts 90°
2026-04-27 07:53 51.47759 -0.45520 94 ft 35 kts 90°
2026-04-27 07:54 51.47724 -0.45212 96 ft 21 kts 139°
2026-04-27 07:54 51.47646 -0.45176 96 ft 1 kts 175°
2026-04-27 07:54 51.47607 -0.45175 93 ft 13 kts 180°
2026-04-27 07:54 51.47521 -0.45230 95 ft 14 kts 244°
2026-04-27 07:55 51.47509 -0.45407 96 ft 18 kts 268°
2026-04-27 07:55 51.47507 -0.45601 96 ft 11 kts 269°
2026-04-27 07:55 51.47514 -0.45746 95 ft 15 kts 275°
2026-04-27 07:55 51.47515 -0.45920 93 ft 17 kts 271°
2026-04-27 07:56 51.47514 -0.46126 94 ft 20 kts 269°
2026-04-27 07:56 51.47514 -0.46360 95 ft 22 kts 270°
2026-04-27 07:56 51.47514 -0.46619 94 ft 20 kts 271°
2026-04-27 07:56 51.47447 -0.46743 94 ft 16 kts 184°
2026-04-27 07:57 51.47326 -0.46728 93 ft 19 kts 180°
2026-04-27 07:57 51.47184 -0.46728 93 ft 22 kts 180°
2026-04-27 07:57 51.47029 -0.46694 97 ft 24 kts 154°
2026-04-27 07:57 51.46902 -0.46566 96 ft 18 kts 146°
2026-04-27 07:58 51.46825 -0.46479 97 ft 8 kts 136°
2026-04-27 07:58 51.46824 -0.46421 95 ft 6 kts 72°
2026-04-27 07:58 51.46839 -0.46376 95 ft 3 kts 58°
2026-04-27 07:58 51.46845 -0.46362 95 ft 1 kts 57°
2026-04-27 07:59 51.46846 -0.46359 95 ft 0 kts 57°